{"data":{"norad_id":53639,"intl_designator":"2022-104BD","name":"STARLINK-4422","alt_names":[],"object_type":"PAYLOAD","status":"ACTIVE","operator":null,"country":"US","launch_date":"2022-08-28","launch_site_code":"AFETR","launch_vehicle":null,"mission":null,"orbit_class":"UNKNOWN","rcs_meters":null,"size_class":null,"mass_kg":null,"dimensions":null,"purposes":["comms"],"wikipedia_slug":null,"has_3d_model":false,"image_url":null,"decayed_at":null,"tle_current":{"epoch":"2026-05-25T04:00:03.998880Z","epoch_age_seconds":71013,"freshness":"FRESH","line1":"1 53639U 22104BD  26145.16671295  .00121153  00000+0  38421-2 0  9992","line2":"2 53639  53.2164 237.6725 0000379  84.6194 344.0052 15.31790993  5697","mean_motion":15.31790993,"eccentricity":3.79e-5,"inclination_deg":53.2164,"raan_deg":237.6725,"arg_perigee_deg":84.6194,"mean_anomaly_deg":344.0052,"bstar":0.0038421,"rev_number":569,"period_min":94.007603294479,"perigee_km":470.20920109653,"apogee_km":470.72832541338,"semimajor_km":6848.605763255,"source":"CELESTRAK","updated_at":"2026-05-25T13:38:17.483194Z"}}}